Regional Weather Roundup
Issued by NWS Cleveland, OH

Home | Current Version | Previous Version | Graphics & Text | Print | Product List | Glossary On
Versions: 1 2 3 4 5 6 7 8 9 10 11 12 13 14 15 16 17 18 19 20 21 22 23 24 25 26 27 28 29 30 31 32 33 34 35 36 37 38 39 40 41 42 43 44 45 46 47 48 49 50
000
ASUS41 KCLE 041110
RWRCLE
OHIO REGIONAL WEATHER ROUNDUP
NATIONAL WEATHER SERVICE WILMINGTON, OH
700 AM EDT FRI SEP 04 2015

NOTE: "FAIR" INDICATES FEW OR NO CLOUDS BELOW 12,000 FEET WITH NO
SIGNIFICANT WEATHER AND/OR OBSTRUCTIONS TO VISIBILITY.

OHZ001>008-015>018-024>027-034-035-043-044-041200-
   NORTHWEST OHIO

CITY           SKY/WX    TMP DP  RH WIND       PRES   REMARKS
DEFIANCE       CLEAR     70  67  90 CALM      29.97R FOG
FINDLAY        MOCLDY    70  66  87 S12       29.99R
TOLEDO EXPRESS PTCLDY    66  65  96 SE3       29.97R
TOLEDO EXEC    PTCLDY    68  63  84 S3        29.99R
LIMA           CLEAR     67  66  97 SE3       30.00R
$$

OHZ009>014-019>023-028>033-038-089-041200-
   NORTHEAST OHIO

CITY           SKY/WX    TMP DP  RH WIND       PRES   REMARKS
CLE-HOPKINS    TSTM      66  64  93 S15G29    30.03R FOG
CLE-LAKEFRONT  CLOUDY    71  65  81 S6        30.01R
CUY CO. ARPT   MOCLDY    70  66  88 SE7       30.02
LORAIN-ELYRIA  CLOUDY    66  64  93 E8        30.03R
ASHTABULA      MOCLDY    66  65  96 CALM      30.04R FOG
AKRON-CANTON   LGT RAIN  68  65  90 S7        30.04S FOG
WOOSTER        HVY RAIN  66  64  93 NE7       30.07R FOG
MANSFIELD      CLOUDY    67  65  93 SE12      30.03R
YOUNGSTOWN     LGT RAIN  66  65  96 S7        30.04S FOG
$$

OHZ042-051>053-060>062-070>072-077>081-041200-
  SOUTHWEST OHIO

CITY           SKY/WX    TMP DP  RH WIND       PRES   REMARKS
CINC-COVINGTON CLEAR     67  66  97 CALM      30.02S FOG
CINC-LUNKEN    CLEAR     66  66 100 CALM      30.02R FOG
HAMILTON       CLEAR     67  66  97 CALM      30.02R FOG
DAYTON         MOCLDY    71  67  87 SE6       30.03R
WRIGHT-PAT AFB PTCLDY    70  67  93 NE2       30.01R
DAYTON GENERAL PTCLDY    70  66  87 S5        30.01S
WILMINGTON     PTCLDY    68  65  90 CALM      30.03R
$$

OHZ036-037-039>041-045>050-054>059-063>069-073>076-082>088-041200-
  CENTRAL AND SOUTHEAST OHIO

CITY           SKY/WX    TMP DP  RH WIND       PRES   REMARKS
COLUMBUS       CLOUDY    69  65  86 SE5       30.03R
OSU AIRPORT    MOCLDY    69  65  86 S5        30.04R
BOLTON FIELD   MOCLDY    68  65  92 SE3       30.06R
RICKENBACK AFB MOCLDY    67  65  91 S7        30.05R THUNDER
NEWARK         CLOUDY    69  66  90 NE6       30.04R
MARION         CLOUDY    68  65  90 S8        30.02S
LANCASTER      MOCLDY    69  65  86 SE6       30.05R
ZANESVILLE     CLOUDY    67  64  90 CALM      30.04S
NEW PHILLY     LGT RAIN  67  66  97 CALM      30.05S
$$


USA.gov is the U.S. government's official web portal to all federal, state and local government web resources and services.